Volver al catálogo

STARLINK-31828

ActivoComunicacionesVLEO
NORAD 59767·PAYLOAD·🇺🇸 United States

Lanzado May 14, 2024 desde Vandenberg Space Force Base

Loading…

Próximos Pases (próximas 24 horas)

TLE

ActualizadoSource: CelesTrak SupGP

Época: Sep 15, 2026, 03:15 UTC

1 59767C 24091Q   26258.13590278 -.00051592  00000+0 -16591-2 0  2583
2 59767  53.1585 225.4708 0001509  92.0366 137.6729 15.31725575    19

Sigue STARLINK-31828 en tiempo real con AllMySat

Download on the App Store